Location: Gipe Farm
(40.9466°N, 95.5370°W)
Time: 17:32:01
(UTC-05:00)

Daily predictions for brighter satellites

Satellite Brightness Start Highest point End
(mag) Time Altitude Azimuth Time Altitude Azimuth Time Altitude Azimuth
BREEZE-M DEB (TANK) 4.5 20:21:52 10° WSW 20:35:27 53° NNW 20:39:12 10° NE
Cosmos 1346 Rocket 3.9 20:34:15 10° SSW 20:38:13 51° WNW 20:42:14 10° N
Nadezhda 3 Rocket 4.3 20:33:56 10° N 20:40:03 49° ENE 20:46:10 10° SSE
Cosmos 2360 Rocket 3.2 20:36:30 10° SW 20:41:59 53° WNW 20:47:30 10° NNE
OAO 2 Rocket 4.1 20:39:39 10° WSW 20:44:33 41° S 20:49:18 10° ESE
Cosmos 1633 Rocket 3.5 20:43:29 10° N 20:47:36 40° ENE 20:51:42 10° SSE
Cosmos 2333 Rocket 2.5 20:46:10 10° S 20:51:32 45° ESE 20:56:53 10° NE
CZ-2D R/B 3.4 20:47:53 10° S 20:51:40 74° W 20:55:29 10° NNW
NOSS 2-1 (E) 3.1 20:48:10 10° SSW 20:51:47 83° SE 20:55:48 10° NE
Meteor 2-2 Rocket 4.4 20:49:18 10° S 20:55:02 63° E 21:00:55 10° NNE
COSMOS 2428 2.7 20:50:56 10° SSW 20:56:41 85° ESE 21:02:26 10° NNE
Cosmos 1455 2.7 20:53:54 10° SSE 20:57:28 39° E 21:01:05 10° NNE
Cosmos 2228 Rocket 4.1 20:54:03 10° SE 20:57:42 26° E 21:01:22 10° NNE
Cosmos 2221 4.2 20:53:55 10° SSW 20:57:54 38° WNW 21:01:53 10° N
Cosmos 2333 4.2 20:53:26 10° SSW 20:59:06 88° WNW 21:04:46 10° NNE
ERS-2 2.2 20:56:19 10° S 20:59:59 80° WSW 21:03:40 10° NNW
Cosmos 1844 Rocket 2.7 20:54:24 10° NNW 21:00:07 88° ENE 21:05:47 10° SSE
Cosmos 1408 4.2 20:57:31 10° NNE 21:00:10 19° ENE 21:01:43 15° ESE
BREEZE-M DEB (TANK) 4.1 20:56:07 10° WSW 21:00:32 90° ESE 21:18:56 10° ENE
Cosmos 1844 3.7 20:58:00 10° NNW 21:03:43 75° ENE 21:09:27 10° SSE
Cosmos 1892 2.7 21:00:28 10° N 21:04:21 70° E 21:08:12 10° SSE
NOSS 3-3 (A) 3.9 20:58:45 10° SSW 21:04:41 70° ESE 21:11:12 10° NE
NOSS 3-3 (C) 3.9 20:58:51 10° SSW 21:04:46 69° ESE 21:11:18 10° NE
SL-8 R/B 4.1 21:02:45 10° SSW 21:07:12 40° SE 21:11:42 10° ENE
Cosmos 2219 Rocket 2.1 21:04:24 10° SSW 21:10:03 77° ESE 21:15:43 10° NNE
H-2A R/B 3.6 21:07:50 13° E 21:10:12 18° ENE 21:13:30 10° NNE
Cosmos 2237 Rocket 2.7 21:05:37 10° S 21:10:42 37° ESE 21:15:49 10° NE
Cosmos 1805 Rocket 4.5 21:07:39 10° NNW 21:11:52 50° W 21:16:02 10° SSW
USA 267 4.3 21:10:12 10° ENE 21:14:51 20° ESE 21:19:28 10° SSE
Cosmos 2154 Rocket 4.1 21:09:36 10° S 21:15:52 82° W 21:22:08 10° N
YAOGAN 6 2.8 21:13:13 10° S 21:16:47 73° WSW 21:20:26 10° NNW
Cosmos 1328 Rocket 3.5 21:13:24 10° S 21:17:45 66° E 21:22:10 10° NNE
Genesis I 3.8 21:14:17 10° NNW 21:18:14 46° NE 21:20:28 23° ESE
Cosmos 2278 Rocket 2.7 21:14:36 10° NNW 21:20:02 44° ENE 21:23:35 20° ESE
Resurs 01 Rocket 1.6 21:16:37 10° SSE 21:21:04 87° W 21:25:32 10° NNW
SAR-Lupe-3 4.4 21:19:14 10° NNE 21:22:50 74° ESE 21:26:24 10° S
Cosmos 2251 Rocket 4.1 21:19:39 10° NNW 21:24:56 58° WSW 21:30:10 10° S
NOAA 11 4.2 21:20:32 13° SSE 21:25:27 67° ENE 21:30:55 10° N
Envisat 4.4 21:23:22 10° SSW 21:28:03 38° W 21:32:46 10° NNW
Cosmos 1470 Rocket 3.6 21:25:26 10° N 21:29:48 62° E 21:32:39 21° SSE
ATLAS CENTAUR R/B 1.0 21:28:15 10° SSW 21:31:53 90° SSW 21:35:43 10° NNE
Cosmos 2341 Rocket 4.1 21:31:22 10° S 21:37:44 82° W 21:44:06 10° N
Cosmos 2056 Rocket 4.2 21:35:44 23° SE 21:38:13 34° E 21:43:03 10° NE
Cosmos 2098 Rocket 3.5 21:39:29 28° SE 21:41:19 40° E 21:45:05 10° NNE
Aureole 2 4.2 21:39:33 10° SSW 21:42:36 71° WNW 21:45:33 10° NNE
Cosmos 2218 Rocket 4.0 21:37:49 10° S 21:44:02 62° E 21:50:21 10° NNE
Cosmos 1825 2.2 21:41:47 10° N 21:45:33 60° E 21:46:31 43° SE
Cosmos 405 4.3 21:45:38 10° NNE 21:48:07 25° ENE 21:48:07 25° ENE
USA 186 4.3 21:51:04 10° WSW 21:51:31 10° W 21:51:59 10° W
NOSS 0 Rocket 4.0 21:45:23 10° SSW 21:51:33 84° WNW 21:57:48 10° NNE
Cosmos 1624 Rocket 4.1 21:52:46 27° SSE 21:55:20 50° ESE 22:00:21 10° NNE
BREEZE-M DEB (TANK) 2.0 21:52:15 10° WNW 21:55:38 69° WSW 21:55:38 69° WSW
Cosmos 2366 rocket 3.9 21:51:34 14° S 21:56:53 70° E 22:03:09 10° NNE
TRAILBLAZER 4.5 21:53:15 10° SSW 21:57:46 70° ESE 22:02:26 10° NE
Cosmos 1933 Rocket 3.6 21:54:07 10° N 21:58:31 76° W 22:00:35 30° S
Cosmos 2344 4.1 21:58:41 30° SE 22:00:03 32° ESE 22:06:51 10° NE
SL-16 R/B 2.6 21:59:33 37° ESE 22:00:07 38° ESE 22:05:18 10° NE
Cosmos 1869 3.2 22:02:49 43° S 22:04:04 87° ESE 22:08:07 10° N
BREEZE-M DEB (TANK) 3.0 22:02:02 10° NW 22:04:23 38° NNW 22:04:23 38° NNW
Terra 3.7 22:05:06 16° ENE 22:05:06 16° ENE 22:07:48 10° NNE
Cosmos 1151 Rocket 3.7 22:01:48 10° SSW 22:05:57 53° W 22:10:09 10° N
SL-8 Rocket 4.2 22:00:17 10° SSW 22:06:35 75° W 22:12:53 10° N
GEOS 3 Rocket 3.7 22:01:43 10° NE 22:06:56 52° ESE 22:12:01 10° SSW
ARGOS 3.0 22:07:10 39° SSE 22:09:14 80° ENE 22:14:36 10° N
MetOp-B 4.0 22:12:10 44° SSE 22:13:54 78° ENE 22:19:16 10° N
Cosmos 1339 Rocket 4.3 22:08:30 10° N 22:14:37 82° E 22:17:11 38° SSE
Lacrosse 5 4.3 22:15:39 10° NNW 22:18:35 15° NNE 22:21:32 10° NE
ATLAS 2AS CENTAUR R/B 3.3 22:11:13 10° NW 22:18:50 56° WSW 22:22:42 28° S
SPOT 5 3.3 22:19:19 40° ENE 22:19:19 40° ENE 22:23:21 10° N
Cosmos 1869 Rocket 3.8 22:16:25 10° N 22:20:23 53° ENE 22:20:23 53° ENE
Helios 1B rocket 4.2 22:18:08 10° NNE 22:19:46 21° NE 22:19:46 21° NE
Meteor 2-10 Rocket 3.8 22:27:11 27° SSW 22:30:23 78° W 22:36:14 10° N
Cosmos 2297 3.7 22:25:43 10° NNW 22:31:22 65° ENE 22:32:07 59° ESE
DMSP B5D2-2 4.2 22:26:50 10° NNE 22:31:42 56° E 22:31:42 56° E
Cosmos 1441 Rocket 4.5 22:34:51 33° NNE 22:34:51 33° NNE 22:37:01 10° NNE
Helios 1A 3.2 22:35:50 62° NNE 22:35:50 62° NNE 22:39:27 10° N
Cosmos 2333 Rocket 4.2 22:31:11 10° WSW 22:35:58 27° NW 22:40:45 10° N
ATLAS 2A CENTAUR R/B 4.4 22:23:10 10° SW 22:36:01 29° S 22:36:37 29° S
Cosmos 2369 Rocket 4.0 22:35:47 10° N 22:39:37 18° NE 22:40:15 18° ENE
SPOT 1/Viking Rocket 3.5 22:40:49 65° ENE 22:40:51 65° ENE 22:46:03 10° N
USA 81 4.1 22:37:12 10° N 22:42:28 73° W 22:43:21 60° SSW
H-2A R/B 2.4 22:48:27 50° SW 22:49:12 55° W 22:54:07 10° NNW
NOSS 3-4 (A) 3.8 22:42:15 10° NNW 22:49:22 84° NE 22:51:01 58° SE
NOSS 3-4 (C) 3.8 22:42:21 10° NNW 22:49:28 83° NE 22:51:06 59° SE
SL-8 R/B 4.3 22:44:57 10° W 22:49:40 56° NNW 22:50:54 42° NNE
Cosmos 1862 4.2 22:46:40 10° NNW 22:49:46 49° NW 22:49:46 49° NW
ERS-1 Rocket 3.3 22:50:13 55° SW 22:50:43 59° W 22:55:42 10° NNW
Cosmos 407 Rocket 3.5 22:46:09 10° NNW 22:51:15 69° WSW 22:51:21 69° WSW
Cosmos 1934 Rocket 4.4 22:54:46 44° ENE 22:54:46 44° ENE 22:59:40 10° NNE
SL-19 R/B 4.1 22:54:32 76° E 22:54:37 76° ENE 23:00:12 10° NNW
Cosmos 2237 Rocket 3.9 22:49:47 10° WSW 22:54:46 32° WNW 22:59:47 10° N
Cosmos 614 Rocket 4.2 22:50:08 10° NNW 22:54:50 63° NNE 22:54:50 63° NNE
USA 267 3.1 22:51:51 10° NE 22:58:26 83° SE 23:04:59 10° SW
Cosmos 405 Rocket 4.4 23:03:13 33° NNW 23:03:13 33° NNW 23:05:42 10° N
Cosmos 2278 Rocket 3.8 22:59:13 10° NW 23:03:49 26° WSW 23:05:28 23° SW
Cosmos 676 Rocket 4.2 23:05:00 10° NNW 23:09:38 67° NW 23:09:38 67° NW
ATLAS 5 CENTAUR R/B 3.8 23:06:54 10° NNW 23:11:45 26° NE 23:12:39 25° NE
Cosmos 1000 Rocket 4.4 23:07:36 10° N 23:13:49 80° W 23:14:03 79° SW
Cosmos 1821 Rocket 4.0 23:17:40 76° WSW 23:18:02 80° W 23:24:23 10° N
Cosmos 1452 Rocket 4.1 23:22:17 52° N 23:22:17 52° N 23:26:20 10° NNE
USA 234 3.8 23:30:25 44° ENE 23:31:33 48° NNE 23:37:46 10° NW
Cosmos 2123 Rocket 4.1 23:29:02 10° N 23:34:41 72° N 23:34:41 72° N
Terra 3.2 23:43:59 36° NW 23:43:59 36° NW 23:46:57 10° NNW
SL-16 R/B 3.8 23:41:17 20° WSW 23:44:15 31° WNW 23:49:17 10° N
CZ-2C R/B 4.4 23:55:28 33° NNW 23:55:28 33° NNW 23:58:06 10° NNW
